Home > Weather > Eirunepé > Past weeks

Flag for Brazil Weather for the Past 2 Weeks in Eirunepé, Amazonas, Brazil

Now
68 °F

Partly cloudy.


Feels Like: 68 °F
Forecast: 63 / 82 °F
Wind: 3 mph from South

Location: Leticia / Vasquez Cobo

Current Time: Apr 29, 2016 at 5:11:10 AM

Latest Report: Apr 29, 2016 at 4:00 AM


Visibility: N/A

Pressure: 29.94 "Hg

Humidity: 88%

Dew Point: 64 °F

Location of EirunepéLocation

Historic Weather in Eirunepé — Graph

°F

Eirunepé Temperature Yesterday

Maximum temperature yesterday: 72 °F (at 12:00 AM)
Minimum temperature yesterday: 66 °F (at 6:00 AM)
Average temperature yesterday: 68 °F

High & Low Weather Summary for the Past Weeks

 TemperatureHumidityPressure
High93 °F (Apr 25, 2:00 PM)100% (Apr 14, 5:00 AM)30.05 "Hg (Apr 14, 5:00 AM)
Low66 °F (Apr 28, 6:00 AM)63% (Apr 15, 1:00 PM)29.68 "Hg (Apr 27, 3:00 PM)
Average80 °F89%29.84 "Hg
* Reported Apr 14 3:00 AM — Apr 29 3:00 AM, Eirunepé, Weather by CustomWeather, © 2016

Note: Actual official high and low records may vary slightly from our data, if they occured in-between our weather recording intervals... More about our weather records

Advertising

Eirunepé Weather History for the Previous 24 Hours

Scroll right to see more
 ConditionsComfort  
Time TempWeatherWind HumidityBarometerVisibility
3:00 AM
Fri, Apr 29
68 °FPartly cloudy.3 mph88%29.94 "HgN/A
2:00 AM68 °FPartly cloudy.3 mph88%29.95 "HgN/A
1:00 AM68 °FPartly cloudy.3 mph88%29.96 "HgN/A
10:00 PM
Thu, Apr 28
68 °FPartly cloudy.5 mph94%29.98 "HgN/A
9:00 PM68 °FPartly cloudy.3 mph94%30.01 "HgN/A
8:00 PM66 °FLight rain. Passing clouds.5 mph100%29.99 "Hg4 mi
7:00 PM68 °FScattered showers. Passing clouds.3 mph94%29.98 "Hg5 mi
6:00 PM68 °FScattered showers. Mostly cloudy.3 mph94%29.97 "Hg5 mi
5:00 PM68 °FScattered showers. Partly sunny.5 mph94%29.97 "Hg5 mi
4:00 PM68 °FScattered showers. Partly sunny.6 mph94%29.97 "Hg5 mi
3:00 PM70 °FDrizzle. Partly sunny.5 mph88%29.97 "Hg3 mi
2:00 PM70 °FPartly sunny.6 mph83%29.98 "HgN/A
1:00 PM68 °FPartly sunny.6 mph88%30.01 "HgN/A
12:00 PM68 °FDrizzle. More clouds than sun.5 mph88%30.00 "HgN/A
11:00 AM68 °FOvercast.5 mph83%30.04 "HgN/A
10:00 AM68 °FLow clouds.5 mph83%30.05 "HgN/A
9:00 AM66 °FLow clouds.7 mph88%30.04 "HgN/A
8:00 AM66 °FScattered showers. Low clouds.7 mph88%30.01 "Hg5 mi
7:00 AM66 °FScattered showers. Low clouds.6 mph88%29.99 "Hg5 mi
6:00 AM66 °FScattered showers. Partly sunny.6 mph94%29.97 "Hg5 mi
5:00 AM68 °FPassing clouds.6 mph100%29.95 "Hg5 mi
Weather by CustomWeather, © 2016

See weather overviewHow to use our weather pages